Time,TemperatureF,DewpointF,PressureIn,WindDirection,WindDirectionDegrees,WindSpeedMPH,WindSpeedGustMPH,Humidity,HourlyPrecipIn,Conditions,Clouds,dailyrainin,SoftwareType,DateUTC
2013-06-09 00:00:00,65.7,56.8,29.97,South,176,2.0,2.0,73,0.00,,CLR,0.00,VWS V14.01,2013-06-09 05:00:00,
2013-06-09 00:01:00,65.7,56.8,29.97,SE,136,1.0,2.0,73,0.00,,CLR,0.00,VWS V14.01,2013-06-09 05:01:00,
2013-06-09 00:06:00,65.5,56.6,29.97,South,186,1.0,2.0,73,0.00,,CLR,0.00,VWS V14.01,2013-06-09 05:06:00,
2013-06-09 00:10:00,65.4,56.9,29.97,SSE,155,1.0,2.0,74,0.00,,CLR,0.00,VWS V14.01,2013-06-09 05:10:00,
2013-06-09 00:11:00,65.2,56.7,29.97,SSE,163,1.0,2.0,74,0.00,,CLR,0.00,VWS V14.01,2013-06-09 05:11:00,
2013-06-09 00:16:00,65.0,56.9,29.96,SSE,159,0.0,2.0,75,0.00,,CLR,0.00,VWS V14.01,2013-06-09 05:16:00,
2013-06-09 00:20:00,65.0,56.9,29.96,SE,138,0.0,2.0,75,0.00,,CLR,0.00,VWS V14.01,2013-06-09 05:20:00,
2013-06-09 00:21:00,65.0,56.9,29.96,SSE,151,1.0,2.0,75,0.00,,CLR,0.00,VWS V14.01,2013-06-09 05:21:00,
2013-06-09 00:26:00,65.0,56.9,29.96,SE,139,1.0,2.0,75,0.00,,CLR,0.00,VWS V14.01,2013-06-09 05:26:00,
2013-06-09 00:30:00,64.9,56.8,29.96,SSE,155,2.0,3.0,75,0.00,,CLR,0.00,VWS V14.01,2013-06-09 05:30:00,
2013-06-09 00:32:00,64.8,57.1,29.96,SSE,153,1.0,2.0,76,0.00,,CLR,0.00,VWS V14.01,2013-06-09 05:32:00,
2013-06-09 00:37:00,64.8,57.1,29.96,SSE,149,1.0,2.0,76,0.00,,CLR,0.00,VWS V14.01,2013-06-09 05:37:00,
2013-06-09 00:40:00,64.8,57.1,29.96,SSE,150,1.0,2.0,76,0.00,,CLR,0.00,VWS V14.01,2013-06-09 05:40:00,
2013-06-09 00:42:00,64.9,57.2,29.96,SSE,150,1.0,2.0,76,0.00,,CLR,0.00,VWS V14.01,2013-06-09 05:42:00,
2013-06-09 00:47:00,65.0,56.9,29.96,South,183,1.0,2.0,75,0.00,,CLR,0.00,VWS V14.01,2013-06-09 05:47:00,
2013-06-09 00:50:00,65.0,56.9,29.96,SSE,148,1.0,2.0,75,0.00,,CLR,0.00,VWS V14.01,2013-06-09 05:50:00,
2013-06-09 00:52:00,65.2,57.1,29.96,SE,144,1.0,3.0,75,0.00,,CLR,0.00,VWS V14.01,2013-06-09 05:52:00,
2013-06-09 00:57:00,65.3,57.2,29.96,SE,144,1.0,3.0,75,0.00,,CLR,0.00,VWS V14.01,2013-06-09 05:57:00,
2013-06-09 01:00:00,65.3,57.2,29.96,SSE,160,1.0,3.0,75,0.00,,CLR,0.00,VWS V14.01,2013-06-09 06:00:00,
2013-06-09 01:02:00,65.2,57.1,29.95,ESE,120,2.0,2.0,75,0.00,,CLR,0.00,VWS V14.01,2013-06-09 06:02:00,
2013-06-09 01:07:00,65.1,57.0,29.95,SSE,159,1.0,2.0,75,0.00,,CLR,0.00,VWS V14.01,2013-06-09 06:07:00,
2013-06-09 01:10:00,65.1,57.4,29.95,SSE,162,0.0,2.0,76,0.00,,CLR,0.00,VWS V14.01,2013-06-09 06:10:00,
2013-06-09 01:12:00,65.0,57.3,29.95,South,169,1.0,2.0,76,0.00,,CLR,0.00,VWS V14.01,2013-06-09 06:12:00,
2013-06-09 01:17:00,64.9,57.2,29.95,SSE,166,1.0,3.0,76,0.00,,CLR,0.00,VWS V14.01,2013-06-09 06:17:00,
2013-06-09 01:20:00,64.9,57.2,29.95,SE,145,0.0,3.0,76,0.00,,CLR,0.00,VWS V14.01,2013-06-09 06:20:00,
2013-06-09 01:22:00,64.9,57.2,29.95,South,170,1.0,3.0,76,0.00,,CLR,0.00,VWS V14.01,2013-06-09 06:22:00,
2013-06-09 01:27:00,64.7,57.3,29.94,SE,126,1.0,3.0,77,0.00,,CLR,0.00,VWS V14.01,2013-06-09 06:27:00,
2013-06-09 01:30:00,64.7,57.3,29.94,SE,126,0.0,3.0,77,0.00,,CLR,0.00,VWS V14.01,2013-06-09 06:30:00,
2013-06-09 01:33:00,64.2,57.2,29.94,ESE,105,1.0,3.0,78,0.00,,CLR,0.00,VWS V14.01,2013-06-09 06:33:00,
2013-06-09 01:38:00,63.7,57.1,29.94,ESE,108,0.0,3.0,79,0.00,,CLR,0.00,VWS V14.01,2013-06-09 06:38:00,
2013-06-09 01:40:00,63.6,57.0,29.93,East,88,2.0,3.0,79,0.00,,CLR,0.00,VWS V14.01,2013-06-09 06:40:00,
2013-06-09 01:43:00,63.3,57.0,29.94,East,95,0.0,2.0,80,0.00,,CLR,0.00,VWS V14.01,2013-06-09 06:43:00,
2013-06-09 01:48:00,63.1,57.2,29.94,ESE,120,0.0,2.0,81,0.00,,CLR,0.00,VWS V14.01,2013-06-09 06:48:00,
2013-06-09 01:50:00,63.1,57.2,29.94,ESE,120,0.0,2.0,81,0.00,,CLR,0.00,VWS V14.01,2013-06-09 06:50:00,
2013-06-09 01:53:00,62.9,57.3,29.94,SSE,148,1.0,2.0,82,0.00,,CLR,0.00,VWS V14.01,2013-06-09 06:53:00,
2013-06-09 01:58:00,62.8,57.2,29.94,SE,143,1.0,2.0,82,0.00,,CLR,0.00,VWS V14.01,2013-06-09 06:58:00,
2013-06-09 02:00:00,62.8,57.2,29.94,SE,143,1.0,2.0,82,0.00,,CLR,0.00,VWS V14.01,2013-06-09 07:00:00,
2013-06-09 02:03:00,62.8,57.6,29.94,SSE,152,3.0,4.0,83,0.00,,CLR,0.00,VWS V14.01,2013-06-09 07:03:00,
2013-06-09 02:09:00,63.1,57.5,29.93,SSE,161,2.0,2.0,82,0.00,,CLR,0.00,VWS V14.01,2013-06-09 07:09:00,
2013-06-09 02:10:00,63.0,57.4,29.93,SSE,158,2.0,4.0,82,0.00,,CLR,0.00,VWS V14.01,2013-06-09 07:10:00,
2013-06-09 02:14:00,63.3,57.7,29.93,SSE,149,2.0,3.0,82,0.00,,CLR,0.00,VWS V14.01,2013-06-09 07:14:00,
2013-06-09 02:19:00,63.6,57.7,29.93,SE,146,1.0,2.0,81,0.00,,CLR,0.00,VWS V14.01,2013-06-09 07:19:00,
2013-06-09 02:20:00,63.5,57.6,29.93,SE,133,2.0,3.0,81,0.00,,CLR,0.00,VWS V14.01,2013-06-09 07:20:00,
2013-06-09 02:24:00,63.6,57.7,29.93,SSE,158,2.0,4.0,81,0.00,,CLR,0.00,VWS V14.01,2013-06-09 07:24:00,
2013-06-09 02:29:00,63.7,57.8,29.93,SSE,167,1.0,3.0,81,0.00,,CLR,0.00,VWS V14.01,2013-06-09 07:29:00,
2013-06-09 02:30:00,63.6,57.7,29.93,ESE,107,3.0,4.0,81,0.00,,CLR,0.00,VWS V14.01,2013-06-09 07:30:00,
2013-06-09 02:34:00,63.8,57.9,29.93,SSE,152,2.0,3.0,81,0.00,,CLR,0.00,VWS V14.01,2013-06-09 07:34:00,
2013-06-09 02:39:00,63.8,57.9,29.93,SSE,155,1.0,1.0,81,0.00,,CLR,0.00,VWS V14.01,2013-06-09 07:39:00,
2013-06-09 02:40:00,63.8,57.9,29.93,SSE,165,1.0,3.0,81,0.00,,CLR,0.00,VWS V14.01,2013-06-09 07:40:00,
2013-06-09 02:45:00,63.9,58.0,29.93,SSE,158,1.0,3.0,81,0.00,,CLR,0.00,VWS V14.01,2013-06-09 07:45:00,
2013-06-09 02:50:00,63.8,58.2,29.93,SE,131,1.0,2.0,82,0.00,,CLR,0.00,VWS V14.01,2013-06-09 07:50:00,
2013-06-09 02:55:00,63.7,58.1,29.94,South,172,0.0,3.0,82,0.00,,CLR,0.00,VWS V14.01,2013-06-09 07:55:00,
2013-06-09 03:00:00,63.6,58.0,29.94,SSE,162,0.0,2.0,82,0.00,,CLR,0.00,VWS V14.01,2013-06-09 08:00:00,
2013-06-09 03:05:00,63.5,57.9,29.94,SSE,158,0.0,3.0,82,0.00,,CLR,0.00,VWS V14.01,2013-06-09 08:05:00,
2013-06-09 03:10:00,63.4,58.2,29.94,SSE,164,1.0,3.0,83,0.00,,CLR,0.00,VWS V14.01,2013-06-09 08:10:00,
2013-06-09 03:15:00,63.3,58.1,29.94,SSW,201,0.0,3.0,83,0.00,,CLR,0.00,VWS V14.01,2013-06-09 08:15:00,
2013-06-09 03:20:00,63.3,58.1,29.94,SSE,148,2.0,3.0,83,0.00,,CLR,0.00,VWS V14.01,2013-06-09 08:20:00,
2013-06-09 03:25:00,63.3,58.1,29.94,SSE,153,2.0,3.0,83,0.00,,CLR,0.00,VWS V14.01,2013-06-09 08:25:00,
2013-06-09 03:30:00,63.3,58.1,29.94,South,181,0.0,3.0,83,0.00,,CLR,0.00,VWS V14.01,2013-06-09 08:30:00,
2013-06-09 03:31:00,63.3,58.4,29.94,SE,139,1.0,4.0,84,0.00,,CLR,0.00,VWS V14.01,2013-06-09 08:31:00,
2013-06-09 03:36:00,63.4,58.5,29.94,SSW,204,2.0,4.0,84,0.00,,CLR,0.00,VWS V14.01,2013-06-09 08:36:00,
2013-06-09 03:40:00,63.5,58.6,29.94,SSE,166,1.0,4.0,84,0.00,,CLR,0.00,VWS V14.01,2013-06-09 08:40:00,
2013-06-09 03:41:00,63.7,58.5,29.94,SSE,160,0.0,5.0,83,0.00,,CLR,0.00,VWS V14.01,2013-06-09 08:41:00,
2013-06-09 03:46:00,63.9,58.6,29.95,SSE,160,0.0,5.0,83,0.00,,CLR,0.00,VWS V14.01,2013-06-09 08:46:00,
2013-06-09 03:50:00,64.0,58.7,29.95,SSE,159,1.0,5.0,83,0.00,,CLR,0.00,VWS V14.01,2013-06-09 08:50:00,
2013-06-09 03:51:00,64.1,58.8,29.95,ESE,104,2.0,2.0,83,0.00,,CLR,0.00,VWS V14.01,2013-06-09 08:51:00,
2013-06-09 03:56:00,64.2,58.6,29.95,South,191,0.0,3.0,82,0.00,,CLR,0.00,VWS V14.01,2013-06-09 08:56:00,
2013-06-09 04:00:00,64.3,58.7,29.95,SSE,167,1.0,3.0,82,0.00,,CLR,0.00,VWS V14.01,2013-06-09 09:00:00,
2013-06-09 04:02:00,64.3,58.7,29.94,SSW,194,0.0,3.0,82,0.00,,CLR,0.00,VWS V14.01,2013-06-09 09:02:00,
2013-06-09 04:07:00,64.2,58.6,29.94,SSE,160,2.0,4.0,82,0.00,,CLR,0.00,VWS V14.01,2013-06-09 09:07:00,
2013-06-09 04:10:00,64.2,58.6,29.94,SSE,147,3.0,4.0,82,0.00,,CLR,0.00,VWS V14.01,2013-06-09 09:10:00,
2013-06-09 04:12:00,64.3,58.7,29.94,SE,134,3.0,4.0,82,0.00,,CLR,0.00,VWS V14.01,2013-06-09 09:12:00,
2013-06-09 04:17:00,64.1,58.5,29.94,SSE,153,0.0,4.0,82,0.00,,CLR,0.00,VWS V14.01,2013-06-09 09:17:00,
2013-06-09 04:20:00,64.1,58.5,29.94,SSE,155,1.0,4.0,82,0.00,,CLR,0.00,VWS V14.01,2013-06-09 09:20:00,
2013-06-09 04:22:00,63.9,58.3,29.94,SSE,162,1.0,4.0,82,0.00,,SCT070,0.00,VWS V14.01,2013-06-09 09:22:00,
2013-06-09 04:27:00,64.0,58.1,29.94,SSE,162,0.0,4.0,81,0.00,,SCT070,0.00,VWS V14.01,2013-06-09 09:27:00,
2013-06-09 04:30:00,64.0,58.4,29.94,South,190,1.0,4.0,82,0.00,,CLR,0.00,VWS V14.01,2013-06-09 09:30:00,
2013-06-09 04:32:00,63.9,58.0,29.94,SSE,163,2.0,4.0,81,0.00,,SCT070,0.00,VWS V14.01,2013-06-09 09:32:00,
2013-06-09 04:37:00,64.0,58.1,29.93,SSE,166,6.0,7.0,81,0.00,,SCT070,0.00,VWS V14.01,2013-06-09 09:37:00,
2013-06-09 04:40:00,64.0,58.1,29.93,SE,134,3.0,7.0,81,0.00,,CLR,0.00,VWS V14.01,2013-06-09 09:40:00,
2013-06-09 04:43:00,64.0,58.1,29.93,South,184,1.0,3.0,81,0.00,,SCT070,0.00,VWS V14.01,2013-06-09 09:43:00,
2013-06-09 04:48:00,63.9,58.0,29.93,SSE,167,1.0,5.0,81,0.00,,SCT070,0.00,VWS V14.01,2013-06-09 09:48:00,
2013-06-09 04:50:00,63.9,58.0,29.93,SSE,168,1.0,5.0,81,0.00,,CLR,0.00,VWS V14.01,2013-06-09 09:50:00,
2013-06-09 04:53:00,63.9,58.0,29.93,South,169,3.0,5.0,81,0.00,,SCT070,0.00,VWS V14.01,2013-06-09 09:53:00,
2013-06-09 04:58:00,63.8,57.9,29.93,SSE,155,1.0,5.0,81,0.00,,SCT070,0.00,VWS V14.01,2013-06-09 09:58:00,
2013-06-09 05:00:00,63.8,57.9,29.93,South,181,3.0,5.0,81,0.00,,CLR,0.00,VWS V14.01,2013-06-09 10:00:00,
2013-06-09 05:03:00,63.9,58.0,29.93,SSE,165,1.0,5.0,81,0.00,,CLR,0.00,VWS V14.01,2013-06-09 10:03:00,
2013-06-09 05:08:00,63.9,58.0,29.93,SSE,160,2.0,5.0,81,0.00,,CLR,0.00,VWS V14.01,2013-06-09 10:08:00,
2013-06-09 05:10:00,63.9,58.0,29.93,SSE,160,2.0,5.0,81,0.00,,CLR,0.00,VWS V14.01,2013-06-09 10:10:00,
2013-06-09 05:13:00,63.7,57.8,29.93,ESE,106,2.0,3.0,81,0.00,,CLR,0.00,VWS V14.01,2013-06-09 10:13:00,
2013-06-09 05:18:00,63.6,57.7,29.93,SSE,160,2.0,2.0,81,0.00,,CLR,0.00,VWS V14.01,2013-06-09 10:18:00,
2013-06-09 05:20:00,63.7,57.8,29.93,ESE,110,1.0,4.0,81,0.00,,CLR,0.00,VWS V14.01,2013-06-09 10:20:00,
2013-06-09 05:24:00,63.5,57.6,29.93,SSE,152,1.0,3.0,81,0.00,,CLR,0.00,VWS V14.01,2013-06-09 10:24:00,
2013-06-09 05:29:00,63.5,57.6,29.93,SSE,157,4.0,4.0,81,0.00,,CLR,0.00,VWS V14.01,2013-06-09 10:29:00,
2013-06-09 05:30:00,63.5,57.6,29.93,SSE,155,1.0,5.0,81,0.00,,CLR,0.00,VWS V14.01,2013-06-09 10:30:00,
2013-06-09 05:34:00,63.6,57.7,29.93,SW,230,2.0,4.0,81,0.00,,CLR,0.00,VWS V14.01,2013-06-09 10:34:00,
2013-06-09 05:39:00,63.6,57.7,29.93,South,169,1.0,5.0,81,0.00,,CLR,0.00,VWS V14.01,2013-06-09 10:39:00,
2013-06-09 05:40:00,63.6,57.7,29.93,SE,143,1.0,4.0,81,0.00,,CLR,0.00,VWS V14.01,2013-06-09 10:40:00,
2013-06-09 05:44:00,63.6,57.7,29.93,South,188,0.0,5.0,81,0.00,,SCT070,0.00,VWS V14.01,2013-06-09 10:44:00,
2013-06-09 05:49:00,63.7,57.8,29.93,SSE,167,2.0,3.0,81,0.00,,SCT070,0.00,VWS V14.01,2013-06-09 10:49:00,
2013-06-09 05:50:00,63.7,57.8,29.93,South,187,1.0,6.0,81,0.00,,CLR,0.00,VWS V14.01,2013-06-09 10:50:00,
2013-06-09 05:54:00,64.1,58.2,29.93,SE,145,4.0,6.0,81,0.00,,SCT070,0.00,VWS V14.01,2013-06-09 10:54:00,
2013-06-09 06:00:00,64.4,58.1,29.92,South,173,1.0,5.0,80,0.00,,CLR,0.00,VWS V14.01,2013-06-09 11:00:00,
2013-06-09 06:05:00,64.4,58.1,29.93,SE,144,1.0,5.0,80,0.00,,CLR,0.00,VWS V14.01,2013-06-09 11:05:00,
2013-06-09 06:10:00,64.5,58.2,29.93,South,180,2.0,7.0,80,0.00,,CLR,0.00,VWS V14.01,2013-06-09 11:10:00,
2013-06-09 06:15:00,65.1,58.4,29.93,SSW,195,0.0,7.0,79,0.00,,CLR,0.00,VWS V14.01,2013-06-09 11:15:00,
2013-06-09 06:20:00,65.6,58.6,29.93,South,183,4.0,5.0,78,0.00,,CLR,0.00,VWS V14.01,2013-06-09 11:20:00,
2013-06-09 06:25:00,65.8,58.4,29.93,SSW,205,2.0,5.0,77,0.00,,CLR,0.00,VWS V14.01,2013-06-09 11:25:00,
2013-06-09 06:30:00,66.2,58.8,29.93,SSW,208,2.0,4.0,77,0.00,,CLR,0.00,VWS V14.01,2013-06-09 11:30:00,
2013-06-09 06:36:00,66.8,59.0,29.92,South,191,0.0,6.0,76,0.00,,CLR,0.00,VWS V14.01,2013-06-09 11:36:00,
2013-06-09 06:40:00,67.2,59.4,29.93,ESE,108,2.0,6.0,76,0.00,,CLR,0.00,VWS V14.01,2013-06-09 11:40:00,
2013-06-09 06:41:00,67.5,59.3,29.93,South,172,3.0,5.0,75,0.00,,BKN070,0.00,VWS V14.01,2013-06-09 11:41:00,
2013-06-09 06:46:00,68.0,59.4,29.92,South,174,3.0,7.0,74,0.00,,BKN070,0.00,VWS V14.01,2013-06-09 11:46:00,
2013-06-09 06:50:00,68.2,59.6,29.92,South,191,1.0,7.0,74,0.00,,CLR,0.00,VWS V14.01,2013-06-09 11:50:00,
2013-06-09 06:51:00,68.3,59.7,29.92,South,174,2.0,4.0,74,0.00,,BKN070,0.00,VWS V14.01,2013-06-09 11:51:00,
2013-06-09 06:56:00,67.9,58.9,29.92,SW,214,1.0,7.0,73,0.00,,BKN070,0.00,VWS V14.01,2013-06-09 11:56:00,
2013-06-09 07:00:00,67.8,59.2,29.92,SW,221,2.0,7.0,74,0.00,,CLR,0.00,VWS V14.01,2013-06-09 12:00:00,
2013-06-09 07:01:00,68.0,59.4,29.92,SSE,147,1.0,6.0,74,0.00,,BKN070,0.00,VWS V14.01,2013-06-09 12:01:00,
2013-06-09 07:06:00,68.8,60.2,29.92,South,171,2.0,7.0,74,0.00,,BKN070,0.00,VWS V14.01,2013-06-09 12:06:00,
2013-06-09 07:10:00,69.0,60.0,29.92,South,189,3.0,7.0,73,0.00,,CLR,0.00,VWS V14.01,2013-06-09 12:10:00,
2013-06-09 07:12:00,69.4,59.6,29.92,SSE,149,2.0,8.0,71,0.00,,BKN070,0.00,VWS V14.01,2013-06-09 12:12:00,
2013-06-09 07:17:00,69.7,59.5,29.91,South,186,6.0,13.0,70,0.00,,BKN070,0.00,VWS V14.01,2013-06-09 12:17:00,
2013-06-09 07:20:00,69.7,59.9,29.92,SSE,160,7.0,13.0,71,0.00,,CLR,0.00,VWS V14.01,2013-06-09 12:20:00,
2013-06-09 07:22:00,69.8,60.0,29.92,ESE,121,2.0,7.0,71,0.00,,SCT070,0.00,VWS V14.01,2013-06-09 12:22:00,
2013-06-09 07:27:00,69.9,60.1,29.92,SE,143,7.0,9.0,71,0.00,,SCT070,0.00,VWS V14.01,2013-06-09 12:27:00,
2013-06-09 07:30:00,69.9,59.7,29.91,SSW,205,3.0,9.0,70,0.00,,CLR,0.00,VWS V14.01,2013-06-09 12:30:00,
2013-06-09 07:32:00,70.1,59.9,29.92,SSE,149,6.0,9.0,70,0.00,,SCT070,0.00,VWS V14.01,2013-06-09 12:32:00,
2013-06-09 07:37:00,70.3,60.1,29.92,WSW,248,3.0,9.0,70,0.00,,SCT070,0.00,VWS V14.01,2013-06-09 12:37:00,
2013-06-09 07:40:00,70.3,59.7,29.92,SE,141,7.0,9.0,69,0.00,,CLR,0.00,VWS V14.01,2013-06-09 12:40:00,
2013-06-09 07:42:00,70.4,59.8,29.92,WSW,255,1.0,7.0,69,0.00,,BKN085,0.00,VWS V14.01,2013-06-09 12:42:00,
2013-06-09 07:47:00,70.3,59.7,29.91,SSE,164,5.0,7.0,69,0.00,,BKN085,0.00,VWS V14.01,2013-06-09 12:47:00,
2013-06-09 07:50:00,70.3,59.7,29.92,SSW,210,2.0,7.0,69,0.00,,CLR,0.00,VWS V14.01,2013-06-09 12:50:00,
2013-06-09 07:52:00,70.4,59.8,29.91,SSE,165,2.0,8.0,69,0.00,,BKN085,0.00,VWS V14.01,2013-06-09 12:52:00,
2013-06-09 07:58:00,70.7,60.0,29.91,West,278,1.0,8.0,69,0.00,,BKN085,0.00,VWS V14.01,2013-06-09 12:58:00,
2013-06-09 08:00:00,70.7,60.0,29.91,SSW,204,2.0,8.0,69,0.00,,CLR,0.00,VWS V14.01,2013-06-09 13:00:00,
2013-06-09 08:03:00,70.9,60.2,29.91,SE,143,7.0,9.0,69,0.00,,SCT070,0.00,VWS V14.01,2013-06-09 13:03:00,
2013-06-09 08:08:00,70.8,60.5,29.91,SSW,205,1.0,9.0,70,0.00,,SCT070,0.00,VWS V14.01,2013-06-09 13:08:00,
2013-06-09 08:10:00,70.9,60.6,29.91,SSE,155,0.0,9.0,70,0.00,,CLR,0.00,VWS V14.01,2013-06-09 13:10:00,
2013-06-09 08:13:00,71.2,60.5,29.92,SW,218,5.0,7.0,69,0.00,,SCT070,0.00,VWS V14.01,2013-06-09 13:13:00,
2013-06-09 08:18:00,71.5,60.8,29.92,West,266,3.0,3.0,69,0.00,,SCT070,0.00,VWS V14.01,2013-06-09 13:18:00,
2013-06-09 08:20:00,71.5,60.8,29.92,West,267,1.0,10.0,69,0.00,,CLR,0.00,VWS V14.01,2013-06-09 13:20:00,
2013-06-09 08:23:00,71.9,61.2,29.92,East,98,2.0,8.0,69,0.00,,SCT065,0.00,VWS V14.01,2013-06-09 13:23:00,
2013-06-09 08:28:00,72.1,61.0,29.91,SSE,157,4.0,4.0,68,0.00,,SCT065,0.00,VWS V14.01,2013-06-09 13:28:00,
2013-06-09 08:30:00,72.1,61.0,29.91,ESE,120,0.0,8.0,68,0.00,,CLR,0.00,VWS V14.01,2013-06-09 13:30:00,
2013-06-09 08:34:00,72.1,61.0,29.91,SE,143,3.0,8.0,68,0.00,,SCT065,0.00,VWS V14.01,2013-06-09 13:34:00,
2013-06-09 08:39:00,72.2,60.7,29.91,NNW,330,1.0,4.0,67,0.00,,SCT065,0.00,VWS V14.01,2013-06-09 13:39:00,
2013-06-09 08:40:00,72.2,61.1,29.91,SSW,210,1.0,8.0,68,0.00,,CLR,0.00,VWS V14.01,2013-06-09 13:40:00,
2013-06-09 08:44:00,72.2,61.1,29.91,West,271,1.0,7.0,68,0.00,,CLR,0.00,VWS V14.01,2013-06-09 13:44:00,
2013-06-09 08:49:00,72.3,61.2,29.91,South,173,2.0,5.0,68,0.00,,CLR,0.00,VWS V14.01,2013-06-09 13:49:00,
2013-06-09 08:50:00,72.3,61.6,29.91,West,280,4.0,7.0,69,0.00,,CLR,0.00,VWS V14.01,2013-06-09 13:50:00,
2013-06-09 08:54:00,72.6,61.4,29.91,SE,143,4.0,9.0,68,0.00,,CLR,0.00,VWS V14.01,2013-06-09 13:54:00,
2013-06-09 09:00:00,72.8,61.2,29.91,SE,134,4.0,5.0,67,0.00,,SCT090,0.00,VWS V14.01,2013-06-09 14:00:00,
2013-06-09 09:05:00,72.9,61.3,29.91,WSW,240,2.0,8.0,67,0.00,,SCT090,0.00,VWS V14.01,2013-06-09 14:05:00,
2013-06-09 09:10:00,73.1,61.1,29.91,ESE,113,2.0,14.0,66,0.00,,SCT090,0.00,VWS V14.01,2013-06-09 14:10:00,
2013-06-09 09:15:00,73.3,61.7,29.91,SE,134,4.0,14.0,67,0.00,,SCT090,0.00,VWS V14.01,2013-06-09 14:15:00,
2013-06-09 09:20:00,73.2,61.2,29.91,SE,129,6.0,8.0,66,0.00,,BKN080,0.00,VWS V14.01,2013-06-09 14:20:00,
2013-06-09 09:25:00,73.3,61.7,29.91,SSW,195,2.0,8.0,67,0.00,,BKN080,0.00,VWS V14.01,2013-06-09 14:25:00,
2013-06-09 09:30:00,73.7,61.7,29.90,WNW,291,1.0,10.0,66,0.00,,BKN080,0.00,VWS V14.01,2013-06-09 14:30:00,
2013-06-09 09:35:00,74.5,62.0,29.90,WSW,242,3.0,11.0,65,0.00,,BKN080,0.00,VWS V14.01,2013-06-09 14:35:00,
2013-06-09 09:40:00,74.7,62.2,29.90,SE,131,2.0,6.0,65,0.00,,SCT090,0.00,VWS V14.01,2013-06-09 14:40:00,
2013-06-09 09:45:00,74.9,61.5,29.90,SSW,200,2.0,12.0,63,0.00,,SCT090,0.00,VWS V14.01,2013-06-09 14:45:00,
2013-06-09 09:50:00,75.3,61.8,29.90,SW,233,2.0,8.0,63,0.00,,SCT090,0.00,VWS V14.01,2013-06-09 14:50:00,
2013-06-09 09:56:00,75.5,62.0,29.90,ENE,65,3.0,8.0,63,0.00,,SCT090,0.00,VWS V14.01,2013-06-09 14:56:00,
2013-06-09 10:00:00,75.5,62.0,29.90,SSE,153,6.0,8.0,63,0.00,,CLR,0.00,VWS V14.01,2013-06-09 15:00:00,
2013-06-09 10:01:00,75.5,62.0,29.90,SE,127,2.0,6.0,63,0.00,,CLR,0.00,VWS V14.01,2013-06-09 15:01:00,
2013-06-09 10:06:00,75.6,62.6,29.89,SSW,205,1.0,7.0,64,0.00,,CLR,0.00,VWS V14.01,2013-06-09 15:06:00,
2013-06-09 10:10:00,75.7,61.8,29.89,SW,236,3.0,8.0,62,0.00,,CLR,0.00,VWS V14.01,2013-06-09 15:10:00,
2013-06-09 10:11:00,75.7,62.2,29.89,WSW,242,1.0,11.0,63,0.00,,CLR,0.00,VWS V14.01,2013-06-09 15:11:00,
2013-06-09 10:16:00,75.9,62.0,29.89,WSW,252,1.0,11.0,62,0.00,,CLR,0.00,VWS V14.01,2013-06-09 15:16:00,
2013-06-09 10:20:00,76.0,62.5,29.89,SSW,211,1.0,11.0,63,0.00,,CLR,0.00,VWS V14.01,2013-06-09 15:20:00,
2013-06-09 10:21:00,76.1,62.6,29.89,SSE,166,2.0,7.0,63,0.00,,CLR,0.00,VWS V14.01,2013-06-09 15:21:00,
2013-06-09 10:26:00,76.5,62.5,29.89,WSW,249,1.0,8.0,62,0.00,,CLR,0.00,VWS V14.01,2013-06-09 15:26:00,
2013-06-09 10:30:00,76.6,62.6,29.89,West,269,1.0,8.0,62,0.00,,CLR,0.00,VWS V14.01,2013-06-09 15:30:00,
2013-06-09 10:32:00,76.7,62.2,29.89,SW,217,3.0,3.0,61,0.00,,CLR,0.00,VWS V14.01,2013-06-09 15:32:00,
2013-06-09 10:37:00,76.9,62.0,29.89,SSE,153,2.0,10.0,60,0.00,,CLR,0.00,VWS V14.01,2013-06-09 15:37:00,
2013-06-09 10:40:00,77.0,62.1,29.89,ENE,75,1.0,10.0,60,0.00,,CLR,0.00,VWS V14.01,2013-06-09 15:40:00,
2013-06-09 10:42:00,77.1,62.2,29.89,SW,227,3.0,7.0,60,0.00,,SCT085,0.00,VWS V14.01,2013-06-09 15:42:00,
2013-06-09 10:47:00,77.6,64.0,29.89,SE,146,3.0,8.0,63,0.00,,SCT085,0.00,VWS V14.01,2013-06-09 15:47:00,
2013-06-09 10:50:00,77.7,64.1,29.89,SE,127,3.0,8.0,63,0.00,,CLR,0.00,VWS V14.01,2013-06-09 15:50:00,
2013-06-09 10:52:00,78.1,63.6,29.88,SSE,167,3.0,7.0,61,0.00,,SCT085,0.00,VWS V14.01,2013-06-09 15:52:00,
2013-06-09 10:57:00,78.1,62.6,29.88,SW,236,2.0,9.0,59,0.00,,SCT085,0.00,VWS V14.01,2013-06-09 15:57:00,
2013-06-09 11:00:00,78.1,63.1,29.88,West,268,0.0,9.0,60,0.00,,CLR,0.00,VWS V14.01,2013-06-09 16:00:00,
2013-06-09 11:02:00,78.1,62.6,29.88,West,259,4.0,7.0,59,0.00,,SCT085,0.00,VWS V14.01,2013-06-09 16:02:00,
2013-06-09 11:07:00,78.2,62.7,29.88,WSW,257,2.0,8.0,59,0.00,,SCT085,0.00,VWS V14.01,2013-06-09 16:07:00,
2013-06-09 11:10:00,78.2,62.2,29.88,SSW,207,4.0,8.0,58,0.00,,CLR,0.00,VWS V14.01,2013-06-09 16:10:00,
2013-06-09 11:12:00,78.3,62.3,29.88,WSW,245,3.0,7.0,58,0.00,,SCT085,0.00,VWS V14.01,2013-06-09 16:12:00,
2013-06-09 11:18:00,78.3,60.3,29.88,WNW,294,0.0,9.0,54,0.00,,SCT085,0.00,VWS V14.01,2013-06-09 16:18:00,
2013-06-09 11:20:00,78.3,60.3,29.88,NW,315,3.0,9.0,54,0.00,,CLR,0.00,VWS V14.01,2013-06-09 16:20:00,
2013-06-09 11:23:00,78.3,59.8,29.88,SSE,167,2.0,9.0,53,0.00,,SCT085,0.00,VWS V14.01,2013-06-09 16:23:00,
2013-06-09 11:28:00,78.4,60.4,29.88,SSW,210,2.0,9.0,54,0.00,,SCT085,0.00,VWS V14.01,2013-06-09 16:28:00,
2013-06-09 11:30:00,78.4,60.4,29.88,SE,141,1.0,9.0,54,0.00,,CLR,0.00,VWS V14.01,2013-06-09 16:30:00,
2013-06-09 11:33:00,78.3,60.3,29.88,SW,214,4.0,8.0,54,0.00,,SCT085,0.00,VWS V14.01,2013-06-09 16:33:00,
2013-06-09 11:38:00,78.1,62.1,29.87,West,260,3.0,8.0,58,0.00,,SCT085,0.00,VWS V14.01,2013-06-09 16:38:00,
2013-06-09 11:40:00,78.1,62.1,29.87,West,260,3.0,8.0,58,0.00,,CLR,0.00,VWS V14.01,2013-06-09 16:40:00,
2013-06-09 11:43:00,78.1,61.1,29.87,WSW,238,2.0,5.0,56,0.00,,SCT075,0.00,VWS V14.01,2013-06-09 16:43:00,
2013-06-09 11:48:00,78.4,59.9,29.87,WSW,250,4.0,10.0,53,0.00,,SCT075,0.00,VWS V14.01,2013-06-09 16:48:00,
2013-06-09 11:50:00,78.4,59.9,29.87,WSW,250,4.0,10.0,53,0.00,,CLR,0.00,VWS V14.01,2013-06-09 16:50:00,
2013-06-09 11:53:00,78.3,61.3,29.87,WSW,250,2.0,11.0,56,0.00,,SCT075,0.00,VWS V14.01,2013-06-09 16:53:00,
2013-06-09 11:58:00,78.3,59.8,29.87,WNW,287,2.0,3.0,53,0.00,,SCT075,0.00,VWS V14.01,2013-06-09 16:58:00,
2013-06-09 12:00:00,78.3,59.8,29.87,ENE,67,2.0,11.0,53,0.00,,CLR,0.00,VWS V14.01,2013-06-09 17:00:00,
2013-06-09 12:03:00,78.1,59.6,29.86,West,264,1.0,12.0,53,0.00,,SCT110,0.00,VWS V14.01,2013-06-09 17:03:00,
2013-06-09 12:09:00,78.4,61.4,29.87,SW,217,3.0,8.0,56,0.00,,SCT110,0.00,VWS V14.01,2013-06-09 17:09:00,
2013-06-09 12:10:00,78.3,61.3,29.87,South,172,6.0,12.0,56,0.00,,CLR,0.00,VWS V14.01,2013-06-09 17:10:00,
2013-06-09 12:14:00,78.2,59.7,29.86,SW,218,1.0,8.0,53,0.00,,SCT110,0.00,VWS V14.01,2013-06-09 17:14:00,
2013-06-09 12:19:00,78.2,60.7,29.86,WSW,253,4.0,4.0,55,0.00,,SCT110,0.00,VWS V14.01,2013-06-09 17:19:00,
2013-06-09 12:20:00,78.2,60.7,29.86,WSW,245,1.0,8.0,55,0.00,,CLR,0.00,VWS V14.01,2013-06-09 17:20:00,
2013-06-09 12:24:00,78.1,60.6,29.86,SW,219,1.0,5.0,55,0.00,,SCT090,0.00,VWS V14.01,2013-06-09 17:24:00,
2013-06-09 12:29:00,78.1,60.1,29.86,WNW,289,2.0,3.0,54,0.00,,SCT090,0.00,VWS V14.01,2013-06-09 17:29:00,
2013-06-09 12:30:00,78.1,60.6,29.86,West,276,2.0,5.0,55,0.00,,CLR,0.00,VWS V14.01,2013-06-09 17:30:00,
2013-06-09 12:35:00,78.3,60.3,29.86,WSW,240,4.0,7.0,54,0.00,,SCT090,0.00,VWS V14.01,2013-06-09 17:35:00,
2013-06-09 12:40:00,78.4,60.4,29.86,SW,227,2.0,7.0,54,0.00,,CLR,0.00,VWS V14.01,2013-06-09 17:40:00,
2013-06-09 12:45:00,78.4,60.9,29.85,WSW,252,1.0,7.0,55,0.00,,CLR,0.00,VWS V14.01,2013-06-09 17:45:00,
2013-06-09 12:50:00,78.6,60.6,29.85,WSW,251,1.0,3.0,54,0.00,,CLR,0.00,VWS V14.01,2013-06-09 17:50:00,
2013-06-09 12:55:00,78.8,61.8,29.85,North,8,1.0,5.0,56,0.00,,CLR,0.00,VWS V14.01,2013-06-09 17:55:00,
2013-06-09 13:00:00,78.7,61.2,29.85,SSE,150,0.0,3.0,55,0.00,,SCT090,0.00,VWS V14.01,2013-06-09 18:00:00,
2013-06-09 13:05:00,78.6,60.6,29.84,SE,127,3.0,8.0,54,0.00,,SCT090,0.00,VWS V14.01,2013-06-09 18:05:00,
2013-06-09 13:10:00,78.5,60.0,29.84,WSW,247,2.0,11.0,53,0.00,,SCT090,0.00,VWS V14.01,2013-06-09 18:10:00,
2013-06-09 13:15:00,79.0,63.0,29.84,WNW,295,1.0,11.0,58,0.00,,SCT090,0.00,VWS V14.01,2013-06-09 18:15:00,
2013-06-09 13:20:00,79.4,61.3,29.84,WNW,300,2.0,11.0,54,0.00,,CLR,0.00,VWS V14.01,2013-06-09 18:20:00,
2013-06-09 13:21:00,79.4,61.3,29.84,SE,136,4.0,5.0,54,0.00,,SCT090,0.00,VWS V14.01,2013-06-09 18:21:00,
2013-06-09 13:26:00,79.3,60.7,29.84,SSE,162,2.0,10.0,53,0.00,,SCT090,0.00,VWS V14.01,2013-06-09 18:26:00,
2013-06-09 13:30:00,79.2,60.6,29.84,SSE,149,4.0,10.0,53,0.00,,CLR,0.00,VWS V14.01,2013-06-09 18:30:00,
2013-06-09 13:31:00,79.1,61.0,29.83,SSE,155,2.0,6.0,54,0.00,,SCT090,0.00,VWS V14.01,2013-06-09 18:31:00,
2013-06-09 13:36:00,79.4,62.3,29.84,WSW,243,4.0,6.0,56,0.00,,SCT090,0.00,VWS V14.01,2013-06-09 18:36:00,
2013-06-09 13:40:00,79.6,62.5,29.83,SSE,167,4.0,6.0,56,0.00,,CLR,0.00,VWS V14.01,2013-06-09 18:40:00,
2013-06-09 13:42:00,79.7,60.5,29.83,WSW,237,5.0,11.0,52,0.00,,CLR,0.00,VWS V14.01,2013-06-09 18:42:00,
2013-06-09 13:47:00,79.4,61.8,29.83,SE,131,6.0,11.0,55,0.00,,CLR,0.00,VWS V14.01,2013-06-09 18:47:00,
2013-06-09 13:50:00,79.4,60.8,29.83,SE,128,2.0,11.0,53,0.00,,CLR,0.00,VWS V14.01,2013-06-09 18:50:00,
2013-06-09 13:52:00,79.4,61.3,29.83,South,187,3.0,7.0,54,0.00,,CLR,0.00,VWS V14.01,2013-06-09 18:52:00,
2013-06-09 13:57:00,80.1,63.0,29.82,SW,218,3.0,7.0,56,0.00,,CLR,0.00,VWS V14.01,2013-06-09 18:57:00,
2013-06-09 14:00:00,80.3,63.2,29.82,North,354,2.0,7.0,56,0.00,,CLR,0.00,VWS V14.01,2013-06-09 19:00:00,
2013-06-09 14:02:00,80.4,61.7,29.82,SSW,193,6.0,12.0,53,0.00,,CLR,0.00,VWS V14.01,2013-06-09 19:02:00,
2013-06-09 14:07:00,80.3,61.6,29.82,SE,142,3.0,13.0,53,0.00,,CLR,0.00,VWS V14.01,2013-06-09 19:07:00,
2013-06-09 14:10:00,80.3,62.2,29.82,SSE,150,4.0,13.0,54,0.00,,CLR,0.00,VWS V14.01,2013-06-09 19:10:00,
2013-06-09 14:12:00,79.9,60.2,29.81,South,173,5.0,14.0,51,0.00,,CLR,0.00,VWS V14.01,2013-06-09 19:12:00,
2013-06-09 14:18:00,79.6,61.0,29.81,SW,233,3.0,14.0,53,0.00,,CLR,0.00,VWS V14.01,2013-06-09 19:18:00,
2013-06-09 14:20:00,79.6,61.5,29.81,SE,124,3.0,14.0,54,0.00,,CLR,0.00,VWS V14.01,2013-06-09 19:20:00,
2013-06-09 14:23:00,79.5,60.9,29.81,East,91,2.0,5.0,53,0.00,,SCT085,0.00,VWS V14.01,2013-06-09 19:23:00,
2013-06-09 14:28:00,79.3,60.2,29.81,WNW,282,2.0,11.0,52,0.00,,SCT085,0.00,VWS V14.01,2013-06-09 19:28:00,
2013-06-09 14:30:00,79.2,60.6,29.81,SSW,208,5.0,11.0,53,0.00,,CLR,0.00,VWS V14.01,2013-06-09 19:30:00,
2013-06-09 14:33:00,78.9,59.8,29.81,South,180,3.0,11.0,52,0.00,,SCT085,0.00,VWS V14.01,2013-06-09 19:33:00,
2013-06-09 14:38:00,78.7,60.7,29.81,SE,145,5.0,13.0,54,0.00,,SCT085,0.00,VWS V14.01,2013-06-09 19:38:00,
2013-06-09 14:40:00,78.7,60.7,29.81,SE,145,5.0,13.0,54,0.00,,CLR,0.00,VWS V14.01,2013-06-09 19:40:00,
2013-06-09 14:43:00,78.5,61.0,29.80,SSE,167,2.0,13.0,55,0.00,,SCT065,0.00,VWS V14.01,2013-06-09 19:43:00,
2013-06-09 14:48:00,78.6,61.1,29.81,SW,218,4.0,4.0,55,0.00,,SCT065,0.00,VWS V14.01,2013-06-09 19:48:00,
2013-06-09 14:50:00,78.6,61.6,29.81,NW,304,1.0,13.0,56,0.00,,CLR,0.00,VWS V14.01,2013-06-09 19:50:00,
2013-06-09 14:54:00,78.5,61.0,29.81,NNE,29,2.0,12.0,55,0.00,,SCT065,0.00,VWS V14.01,2013-06-09 19:54:00,
2013-06-09 14:59:00,78.4,60.9,29.81,WSW,247,2.0,3.0,55,0.00,,SCT065,0.00,VWS V14.01,2013-06-09 19:59:00,
2013-06-09 15:00:00,78.4,60.9,29.81,WSW,245,2.0,12.0,55,0.00,,CLR,0.00,VWS V14.01,2013-06-09 20:00:00,
2013-06-09 15:04:00,78.2,61.2,29.81,South,171,3.0,8.0,56,0.00,,CLR,0.00,VWS V14.01,2013-06-09 20:04:00,
2013-06-09 15:09:00,78.2,60.7,29.81,WSW,240,1.0,6.0,55,0.00,,CLR,0.00,VWS V14.01,2013-06-09 20:09:00,
2013-06-09 15:10:00,78.2,60.2,29.81,SW,224,6.0,13.0,54,0.00,,CLR,0.00,VWS V14.01,2013-06-09 20:10:00,
2013-06-09 15:15:00,78.0,61.0,29.81,West,280,1.0,6.0,56,0.00,,CLR,0.00,VWS V14.01,2013-06-09 20:15:00,
2013-06-09 15:20:00,77.8,60.9,29.81,SSE,149,4.0,11.0,56,0.00,,SCT090,0.00,VWS V14.01,2013-06-09 20:20:00,
2013-06-09 15:25:00,77.6,59.7,29.81,WSW,253,1.0,11.0,54,0.00,,SCT090,0.00,VWS V14.01,2013-06-09 20:25:00,
2013-06-09 15:30:00,77.2,61.8,29.81,WNW,288,3.0,9.0,59,0.00,,SCT090,0.00,VWS V14.01,2013-06-09 20:30:00,
2013-06-09 15:35:00,75.4,62.8,29.81,West,263,2.0,11.0,65,0.00,,SCT090,0.00,VWS V14.01,2013-06-09 20:35:00,
2013-06-09 15:40:00,74.6,63.8,29.82,West,264,7.0,11.0,69,0.00,,CLR,0.00,VWS V14.01,2013-06-09 20:40:00,
2013-06-09 15:41:00,73.9,63.9,29.82,WSW,246,2.0,8.0,71,0.00,,SCT090,0.00,VWS V14.01,2013-06-09 20:41:00,
2013-06-09 15:46:00,73.0,64.2,29.81,West,267,3.0,9.0,74,0.00,,SCT090,0.00,VWS V14.01,2013-06-09 20:46:00,
2013-06-09 15:50:00,72.7,63.9,29.81,West,278,3.0,9.0,74,0.00,,CLR,0.00,VWS V14.01,2013-06-09 20:50:00,
2013-06-09 15:51:00,72.4,64.0,29.82,WNW,295,4.0,6.0,75,0.00,,SCT090,0.00,VWS V14.01,2013-06-09 20:51:00,
2013-06-09 15:56:00,71.7,64.5,29.81,West,267,2.0,8.0,78,0.00,,SCT090,0.00,VWS V14.01,2013-06-09 20:56:00,
2013-06-09 16:00:00,71.5,64.3,29.81,WNW,285,1.0,8.0,78,0.00,,CLR,0.00,VWS V14.01,2013-06-09 21:00:00,
2013-06-09 16:01:00,71.3,64.1,29.81,West,259,0.0,5.0,78,0.00,,CLR,0.00,VWS V14.01,2013-06-09 21:01:00,
2013-06-09 16:06:00,71.2,64.4,29.81,West,270,1.0,5.0,79,0.00,,CLR,0.00,VWS V14.01,2013-06-09 21:06:00,
2013-06-09 16:10:00,71.1,64.3,29.81,WSW,243,2.0,5.0,79,0.00,,CLR,0.00,VWS V14.01,2013-06-09 21:10:00,
2013-06-09 16:12:00,71.1,64.3,29.81,WSW,257,2.0,5.0,79,0.00,,CLR,0.00,VWS V14.01,2013-06-09 21:12:00,
2013-06-09 16:17:00,71.2,64.7,29.81,SW,232,0.0,5.0,80,0.00,,CLR,0.00,VWS V14.01,2013-06-09 21:17:00,
2013-06-09 16:20:00,71.2,64.7,29.81,SW,233,0.0,5.0,80,0.00,,CLR,0.00,VWS V14.01,2013-06-09 21:20:00,
2013-06-09 16:22:00,71.4,64.6,29.81,West,260,2.0,4.0,79,0.00,,SCT060,0.00,VWS V14.01,2013-06-09 21:22:00,
2013-06-09 16:27:00,71.2,64.4,29.80,WSW,256,1.0,4.0,79,0.00,,SCT060,0.00,VWS V14.01,2013-06-09 21:27:00,
2013-06-09 16:30:00,71.3,64.5,29.81,West,259,1.0,4.0,79,0.00,,CLR,0.00,VWS V14.01,2013-06-09 21:30:00,
2013-06-09 16:32:00,71.4,64.9,29.81,West,264,1.0,3.0,80,0.00,,SCT060,0.00,VWS V14.01,2013-06-09 21:32:00,
2013-06-09 16:37:00,71.4,64.6,29.80,West,273,1.0,3.0,79,0.00,,SCT060,0.00,VWS V14.01,2013-06-09 21:37:00,
2013-06-09 16:40:00,71.4,64.6,29.80,West,273,0.0,3.0,79,0.00,,CLR,0.00,VWS V14.01,2013-06-09 21:40:00,
2013-06-09 16:42:00,71.3,64.5,29.81,WSW,249,1.0,5.0,79,0.00,,CLR,0.00,VWS V14.01,2013-06-09 21:42:00,
2013-06-09 16:47:00,71.0,64.2,29.81,WSW,243,1.0,6.0,79,0.00,,CLR,0.00,VWS V14.01,2013-06-09 21:47:00,
2013-06-09 16:50:00,71.0,64.2,29.81,WSW,255,2.0,6.0,79,0.00,,CLR,0.00,VWS V14.01,2013-06-09 21:50:00,
2013-06-09 16:52:00,70.8,64.3,29.80,SW,232,0.0,4.0,80,0.00,,CLR,0.00,VWS V14.01,2013-06-09 21:52:00,
2013-06-09 16:58:00,70.6,64.1,29.81,WNW,282,1.0,4.0,80,0.00,,CLR,0.00,VWS V14.01,2013-06-09 21:58:00,
2013-06-09 17:00:00,70.6,64.1,29.81,West,262,1.0,4.0,80,0.00,,CLR,0.00,VWS V14.01,2013-06-09 22:00:00,
2013-06-09 17:03:00,70.6,64.5,29.81,West,262,0.0,1.0,81,0.00,,CLR,0.00,VWS V14.01,2013-06-09 22:03:00,
2013-06-09 17:08:00,70.8,64.7,29.80,SSE,160,0.0,2.0,81,0.00,,CLR,0.00,VWS V14.01,2013-06-09 22:08:00,
2013-06-09 17:10:00,70.8,64.7,29.80,SSE,160,0.0,2.0,81,0.00,,CLR,0.00,VWS V14.01,2013-06-09 22:10:00,
2013-06-09 17:13:00,71.2,65.1,29.81,West,273,1.0,3.0,81,0.00,,CLR,0.00,VWS V14.01,2013-06-09 22:13:00,
2013-06-09 17:18:00,71.6,65.1,29.80,SW,218,1.0,1.0,80,0.00,,CLR,0.00,VWS V14.01,2013-06-09 22:18:00,
2013-06-09 17:20:00,71.6,65.1,29.80,SW,217,1.0,3.0,80,0.00,,CLR,0.00,VWS V14.01,2013-06-09 22:20:00,
2013-06-09 17:23:00,71.9,65.4,29.81,SSW,205,2.0,4.0,80,0.00,,SCT110,0.00,VWS V14.01,2013-06-09 22:23:00,
2013-06-09 17:28:00,72.1,65.6,29.80,West,260,1.0,1.0,80,0.00,,SCT110,0.00,VWS V14.01,2013-06-09 22:28:00,
2013-06-09 17:30:00,72.0,65.5,29.81,West,260,0.0,4.0,80,0.00,,CLR,0.00,VWS V14.01,2013-06-09 22:30:00,
2013-06-09 17:34:00,72.2,65.3,29.80,SW,230,0.0,4.0,79,0.00,,SCT110,0.00,VWS V14.01,2013-06-09 22:34:00,
2013-06-09 17:39:00,72.2,65.0,29.80,West,277,0.0,0.0,78,0.00,,SCT110,0.00,VWS V14.01,2013-06-09 22:39:00,
2013-06-09 17:40:00,72.2,65.0,29.80,West,276,0.0,4.0,78,0.00,,CLR,0.00,VWS V14.01,2013-06-09 22:40:00,
2013-06-09 17:44:00,72.1,64.9,29.80,SE,128,2.0,4.0,78,0.00,,BKN100,0.00,VWS V14.01,2013-06-09 22:44:00,
2013-06-09 17:49:00,71.9,64.3,29.80,SW,232,1.0,3.0,77,0.00,,BKN100,0.00,VWS V14.01,2013-06-09 22:49:00,
2013-06-09 17:50:00,71.9,64.7,29.80,WSW,242,2.0,7.0,78,0.00,,CLR,0.00,VWS V14.01,2013-06-09 22:50:00,
2013-06-09 17:54:00,71.7,64.1,29.80,SSW,200,1.0,5.0,77,0.00,,BKN100,0.00,VWS V14.01,2013-06-09 22:54:00,
2013-06-09 17:59:00,71.6,64.0,29.80,West,264,1.0,5.0,77,0.00,,BKN100,0.00,VWS V14.01,2013-06-09 22:59:00,
2013-06-09 18:00:00,71.7,64.5,29.80,SSE,159,4.0,5.0,78,0.00,,CLR,0.00,VWS V14.01,2013-06-09 23:00:00,
2013-06-09 18:04:00,71.4,64.2,29.80,SSE,153,4.0,6.0,78,0.00,,BKN100,0.00,VWS V14.01,2013-06-09 23:04:00,
2013-06-09 18:10:00,71.2,63.6,29.80,SE,131,4.0,9.0,77,0.00,,BKN100,0.00,VWS V14.01,2013-06-09 23:10:00,
2013-06-09 18:15:00,71.1,63.5,29.80,SW,215,1.0,9.0,77,0.00,,BKN100,0.00,VWS V14.01,2013-06-09 23:15:00,
2013-06-09 18:20:00,71.1,63.9,29.80,SW,224,1.0,6.0,78,0.00,,SCT120,0.00,VWS V14.01,2013-06-09 23:20:00,
2013-06-09 18:25:00,71.1,63.9,29.79,East,98,3.0,6.0,78,0.00,,SCT120,0.00,VWS V14.01,2013-06-09 23:25:00,
2013-06-09 18:30:00,70.9,63.7,29.79,WSW,251,2.0,4.0,78,0.00,,SCT120,0.00,VWS V14.01,2013-06-09 23:30:00,
2013-06-09 18:35:00,70.8,63.6,29.79,WSW,243,2.0,9.0,78,0.00,,SCT120,0.00,VWS V14.01,2013-06-09 23:35:00,
2013-06-09 18:40:00,70.6,63.4,29.78,WSW,243,2.0,4.0,78,0.00,,-RA,0.00,VWS V14.01,2013-06-09 23:40:00,
2013-06-09 18:45:00,70.5,63.3,29.79,SW,214,1.0,5.0,78,0.00,,-RA,0.00,VWS V14.01,2013-06-09 23:45:00,
2013-06-09 18:50:00,70.5,63.7,29.79,SSE,156,1.0,3.0,79,0.00,,-RA,0.00,VWS V14.01,2013-06-09 23:50:00,
2013-06-09 18:55:00,70.6,63.8,29.79,SSE,163,0.0,4.0,79,0.00,,-RA,0.00,VWS V14.01,2013-06-09 23:55:00,
2013-06-09 19:00:00,70.6,63.8,29.79,SE,140,1.0,4.0,79,0.00,,CLR,0.00,VWS V14.01,2013-06-10 00:00:00,
2013-06-09 19:01:00,70.6,63.8,29.79,SW,234,1.0,1.0,79,0.00,,CLR,0.00,VWS V14.01,2013-06-10 00:01:00,
2013-06-09 19:06:00,70.4,63.6,29.80,South,177,3.0,4.0,79,0.00,,CLR,0.00,VWS V14.01,2013-06-10 00:06:00,
2013-06-09 19:10:00,70.4,63.6,29.80,WSW,243,1.0,4.0,79,0.00,,CLR,0.00,VWS V14.01,2013-06-10 00:10:00,
2013-06-09 19:11:00,70.4,63.6,29.80,SE,134,2.0,3.0,79,0.00,,CLR,0.00,VWS V14.01,2013-06-10 00:11:00,
2013-06-09 19:16:00,70.5,63.7,29.80,SSW,209,1.0,5.0,79,0.00,,CLR,0.00,VWS V14.01,2013-06-10 00:16:00,
2013-06-09 19:20:00,70.6,63.8,29.80,WSW,257,1.0,5.0,79,0.00,,CLR,0.00,VWS V14.01,2013-06-10 00:20:00,
2013-06-09 19:21:00,70.6,63.8,29.80,West,264,0.0,2.0,79,0.00,,BKN110,0.00,VWS V14.01,2013-06-10 00:21:00,
2013-06-09 19:26:00,70.6,63.8,29.79,SSW,195,2.0,3.0,79,0.00,,BKN110,0.00,VWS V14.01,2013-06-10 00:26:00,
2013-06-09 19:30:00,70.6,63.8,29.79,SW,218,1.0,3.0,79,0.00,,CLR,0.00,VWS V14.01,2013-06-10 00:30:00,
2013-06-09 19:32:00,70.7,63.9,29.80,West,259,2.0,3.0,79,0.00,,BKN110,0.00,VWS V14.01,2013-06-10 00:32:00,
2013-06-09 19:37:00,70.7,63.9,29.80,WSW,245,2.0,6.0,79,0.00,,BKN110,0.00,VWS V14.01,2013-06-10 00:37:00,
2013-06-09 19:40:00,70.6,63.4,29.80,SW,233,0.0,6.0,78,0.00,,CLR,0.00,VWS V14.01,2013-06-10 00:40:00,
2013-06-09 19:42:00,70.6,63.4,29.80,West,266,1.0,5.0,78,0.00,,BKN110,0.00,VWS V14.01,2013-06-10 00:42:00,
2013-06-09 19:47:00,70.6,63.4,29.79,South,184,0.0,8.0,78,0.00,,BKN110,0.00,VWS V14.01,2013-06-10 00:47:00,
2013-06-09 19:50:00,70.6,63.4,29.79,SSE,150,1.0,8.0,78,0.00,,CLR,0.00,VWS V14.01,2013-06-10 00:50:00,
2013-06-09 19:52:00,70.6,63.4,29.79,SW,233,1.0,6.0,78,0.00,,BKN110,0.00,VWS V14.01,2013-06-10 00:52:00,
2013-06-09 19:57:00,70.4,63.2,29.79,SSW,211,0.0,6.0,78,0.00,,BKN110,0.00,VWS V14.01,2013-06-10 00:57:00,
2013-06-09 20:00:00,70.4,63.2,29.79,South,186,3.0,6.0,78,0.00,,CLR,0.00,VWS V14.01,2013-06-10 01:00:00,
2013-06-09 20:02:00,70.3,63.1,29.78,SW,231,1.0,4.0,78,0.00,,OVC080,0.00,VWS V14.01,2013-06-10 01:02:00,
2013-06-09 20:07:00,70.3,63.1,29.79,SSE,153,3.0,4.0,78,0.00,,OVC080,0.00,VWS V14.01,2013-06-10 01:07:00,
2013-06-09 20:10:00,70.2,63.0,29.79,WSW,247,1.0,4.0,78,0.00,,CLR,0.00,VWS V14.01,2013-06-10 01:10:00,
2013-06-09 20:13:00,70.2,63.0,29.78,SSE,155,1.0,3.0,78,0.00,,OVC080,0.00,VWS V14.01,2013-06-10 01:13:00,
2013-06-09 20:18:00,70.1,63.3,29.78,SE,137,0.0,3.0,79,0.00,,OVC080,0.00,VWS V14.01,2013-06-10 01:18:00,
2013-06-09 20:20:00,70.0,63.2,29.78,SE,137,0.0,3.0,79,0.00,,CLR,0.00,VWS V14.01,2013-06-10 01:20:00,
2013-06-09 20:23:00,69.9,63.1,29.78,SSW,198,0.0,3.0,79,0.00,,BKN120,0.00,VWS V14.01,2013-06-10 01:23:00,
2013-06-09 20:28:00,69.7,62.9,29.78,WSW,240,2.0,3.0,79,0.00,,BKN120,0.00,VWS V14.01,2013-06-10 01:28:00,
2013-06-09 20:30:00,69.7,62.9,29.78,WSW,251,2.0,3.0,79,0.00,,CLR,0.00,VWS V14.01,2013-06-10 01:30:00,
2013-06-09 20:33:00,69.5,63.1,29.78,WSW,240,0.0,2.0,80,0.00,,BKN120,0.00,VWS V14.01,2013-06-10 01:33:00,
2013-06-09 20:38:00,69.3,62.9,29.78,SW,231,0.0,2.0,80,0.00,,BKN120,0.00,VWS V14.01,2013-06-10 01:38:00,
2013-06-09 20:40:00,69.3,62.9,29.78,SW,231,0.0,2.0,80,0.00,,CLR,0.00,VWS V14.01,2013-06-10 01:40:00,
2013-06-09 20:43:00,69.0,62.6,29.78,SW,215,1.0,3.0,80,0.00,,SCT120,0.00,VWS V14.01,2013-06-10 01:43:00,
2013-06-09 20:48:00,68.8,62.7,29.78,WSW,238,0.0,0.0,81,0.00,,SCT120,0.00,VWS V14.01,2013-06-10 01:48:00,
2013-06-09 20:50:00,68.8,62.7,29.78,WSW,238,0.0,3.0,81,0.00,,CLR,0.00,VWS V14.01,2013-06-10 01:50:00,
2013-06-09 20:54:00,68.7,62.3,29.78,SSW,204,0.0,4.0,80,0.00,,SCT120,0.00,VWS V14.01,2013-06-10 01:54:00,
2013-06-09 20:59:00,68.6,62.2,29.78,SSW,205,0.0,0.0,80,0.00,,SCT120,0.00,VWS V14.01,2013-06-10 01:59:00,
2013-06-09 21:00:00,68.6,62.2,29.78,SSW,205,0.0,4.0,80,0.00,,CLR,0.00,VWS V14.01,2013-06-10 02:00:00,
2013-06-09 21:04:00,68.4,62.0,29.78,SSW,200,1.0,3.0,80,0.00,,SCT044,0.00,VWS V14.01,2013-06-10 02:04:00,
2013-06-09 21:09:00,68.3,61.9,29.78,SSW,207,0.0,1.0,80,0.00,,SCT044,0.00,VWS V14.01,2013-06-10 02:09:00,
2013-06-09 21:10:00,68.3,61.9,29.78,SSW,211,1.0,3.0,80,0.00,,CLR,0.00,VWS V14.01,2013-06-10 02:10:00,
2013-06-09 21:14:00,68.0,62.0,29.78,SSE,165,0.0,2.0,81,0.00,,SCT044,0.00,VWS V14.01,2013-06-10 02:14:00,
2013-06-09 21:19:00,67.7,61.7,29.78,SSW,210,1.0,3.0,81,0.00,,SCT044,0.00,VWS V14.01,2013-06-10 02:19:00,
2013-06-09 21:20:00,67.8,61.8,29.79,SSE,166,3.0,4.0,81,0.00,,CLR,0.00,VWS V14.01,2013-06-10 02:20:00,
2013-06-09 21:24:00,67.6,61.9,29.79,SSW,210,0.0,3.0,82,0.00,,SCT050,0.00,VWS V14.01,2013-06-10 02:24:00,
2013-06-09 21:30:00,67.3,61.6,29.79,WSW,252,1.0,1.0,82,0.00,,SCT050,0.00,VWS V14.01,2013-06-10 02:30:00,
2013-06-09 21:35:00,67.1,61.4,29.79,SW,223,0.0,2.0,82,0.00,,SCT050,0.00,VWS V14.01,2013-06-10 02:35:00,
2013-06-09 21:40:00,66.8,61.1,29.79,SW,228,0.0,1.0,82,0.00,,CLR,0.00,VWS V14.01,2013-06-10 02:40:00,
2013-06-09 21:45:00,66.7,61.4,29.79,SSE,156,2.0,2.0,83,0.00,,CLR,0.00,VWS V14.01,2013-06-10 02:45:00,
2013-06-09 21:50:00,66.5,61.2,29.79,SW,236,0.0,1.0,83,0.00,,CLR,0.00,VWS V14.01,2013-06-10 02:50:00,
2013-06-09 21:55:00,66.4,61.1,29.80,SSW,205,0.0,1.0,83,0.00,,CLR,0.00,VWS V14.01,2013-06-10 02:55:00,
2013-06-09 22:00:00,66.1,60.8,29.80,SW,228,0.0,0.0,83,0.00,,CLR,0.00,VWS V14.01,2013-06-10 03:00:00,
2013-06-09 22:05:00,65.8,60.5,29.80,South,186,0.0,2.0,83,0.00,,CLR,0.00,VWS V14.01,2013-06-10 03:05:00,
2013-06-09 22:10:00,65.7,60.7,29.80,South,186,0.0,2.0,84,0.00,,CLR,0.00,VWS V14.01,2013-06-10 03:10:00,
2013-06-09 22:11:00,65.6,60.6,29.80,South,186,0.0,0.0,84,0.00,,CLR,0.00,VWS V14.01,2013-06-10 03:11:00,
2013-06-09 22:16:00,65.4,60.5,29.80,SSE,157,0.0,2.0,84,0.00,,CLR,0.00,VWS V14.01,2013-06-10 03:16:00,
2013-06-09 22:20:00,65.3,60.3,29.80,SSE,159,0.0,2.0,84,0.00,,CLR,0.00,VWS V14.01,2013-06-10 03:20:00,
2013-06-09 22:21:00,65.1,60.2,29.80,SSE,148,1.0,2.0,84,0.00,,CLR,0.00,VWS V14.01,2013-06-10 03:21:00,
2013-06-09 22:26:00,64.9,60.3,29.80,SSE,148,0.0,2.0,85,0.00,,CLR,0.00,VWS V14.01,2013-06-10 03:26:00,
2013-06-09 22:30:00,64.7,60.1,29.80,SSE,148,0.0,2.0,85,0.00,,CLR,0.00,VWS V14.01,2013-06-10 03:30:00,
2013-06-09 22:31:00,64.6,60.0,29.80,SSE,148,0.0,0.0,85,0.00,,CLR,0.00,VWS V14.01,2013-06-10 03:31:00,
2013-06-09 22:37:00,64.3,60.0,29.80,SSE,162,0.0,0.0,86,0.00,,CLR,0.00,VWS V14.01,2013-06-10 03:37:00,
2013-06-09 22:40:00,64.2,59.9,29.80,SSE,162,0.0,2.0,86,0.00,,CLR,0.00,VWS V14.01,2013-06-10 03:40:00,
2013-06-09 22:42:00,64.0,60.1,29.80,SE,145,0.0,1.0,87,0.00,,CLR,0.00,VWS V14.01,2013-06-10 03:42:00,
2013-06-09 22:47:00,63.9,60.0,29.80,SSE,155,0.0,2.0,87,0.00,,CLR,0.00,VWS V14.01,2013-06-10 03:47:00,
2013-06-09 22:50:00,63.9,60.0,29.80,SSE,159,0.0,2.0,87,0.00,,CLR,0.00,VWS V14.01,2013-06-10 03:50:00,
2013-06-09 22:52:00,63.7,59.8,29.80,SSE,159,0.0,1.0,87,0.00,,CLR,0.00,VWS V14.01,2013-06-10 03:52:00,
2013-06-09 22:57:00,63.6,60.0,29.79,SSE,159,0.0,1.0,88,0.00,,CLR,0.00,VWS V14.01,2013-06-10 03:57:00,
2013-06-09 23:00:00,63.6,60.0,29.79,SSE,159,0.0,1.0,88,0.00,,CLR,0.00,VWS V14.01,2013-06-10 04:00:00,
2013-06-09 23:01:00,63.6,60.0,29.79,SSE,159,0.0,0.0,88,0.00,,CLR,0.00,VWS V14.01,2013-06-10 04:01:00,
2013-06-09 23:02:00,63.6,60.0,29.79,SSE,159,0.0,0.0,88,0.00,,CLR,0.00,VWS V14.01,2013-06-10 04:02:00,
2013-06-09 23:03:00,63.6,60.0,29.79,SSE,160,0.0,0.0,88,0.00,,CLR,0.00,VWS V14.01,2013-06-10 04:03:00,
2013-06-09 23:04:00,63.6,60.0,29.79,SSE,160,0.0,0.0,88,0.00,,CLR,0.00,VWS V14.01,2013-06-10 04:04:00,
2013-06-09 23:05:00,63.6,60.0,29.79,SSE,159,0.0,0.0,88,0.00,,CLR,0.00,VWS V14.01,2013-06-10 04:05:00,
2013-06-09 23:10:00,63.5,59.9,29.79,SSE,159,0.0,0.0,88,0.00,,CLR,0.00,VWS V14.01,2013-06-10 04:10:00,
2013-06-09 23:16:00,63.4,59.8,29.79,SSW,195,0.0,3.0,88,0.00,,CLR,0.00,VWS V14.01,2013-06-10 04:16:00,
2013-06-09 23:20:00,63.4,59.8,29.79,SSW,195,0.0,3.0,88,0.00,,CLR,0.00,VWS V14.01,2013-06-10 04:20:00,
2013-06-09 23:21:00,63.4,59.8,29.79,SSW,195,0.0,0.0,88,0.00,,CLR,0.00,VWS V14.01,2013-06-10 04:21:00,
2013-06-09 23:26:00,63.3,59.7,29.79,SSW,195,0.0,0.0,88,0.00,,CLR,0.00,VWS V14.01,2013-06-10 04:26:00,
2013-06-09 23:30:00,63.3,59.7,29.78,SSW,195,0.0,0.0,88,0.00,,CLR,0.00,VWS V14.01,2013-06-10 04:30:00,
2013-06-09 23:31:00,63.2,59.9,29.78,SSW,195,0.0,0.0,89,0.00,,CLR,0.00,VWS V14.01,2013-06-10 04:31:00,
2013-06-09 23:36:00,63.2,59.9,29.78,SSW,195,0.0,0.0,89,0.00,,CLR,0.00,VWS V14.01,2013-06-10 04:36:00,
2013-06-09 23:40:00,63.2,59.9,29.78,SSW,195,0.0,0.0,89,0.00,,CLR,0.00,VWS V14.01,2013-06-10 04:40:00,
2013-06-09 23:41:00,63.1,59.8,29.79,SSW,195,0.0,0.0,89,0.00,,CLR,0.00,VWS V14.01,2013-06-10 04:41:00,
2013-06-09 23:47:00,62.9,59.6,29.78,SSW,195,0.0,0.0,89,0.00,,CLR,0.00,VWS V14.01,2013-06-10 04:47:00,
2013-06-09 23:50:00,62.8,59.5,29.78,SSW,195,0.0,0.0,89,0.00,,CLR,0.00,VWS V14.01,2013-06-10 04:50:00,
2013-06-09 23:52:00,62.7,59.7,29.78,SSW,196,0.0,0.0,90,0.00,,CLR,0.00,VWS V14.01,2013-06-10 04:52:00,
2013-06-09 23:57:00,62.7,59.7,29.78,SSE,151,0.0,1.0,90,0.00,,CLR,0.00,VWS V14.01,2013-06-10 04:57:00,